Regional Weather Roundup
Issued by NWS

Home | Current Version | Previous Version | Graphics & Text | Print | Product List | Glossary On
Versions: 1 2 3 4 5 6 7 8 9 10 11 12 13 14 15 16 17 18 19 20 21 22 23 24 25 26 27 28 29 30 31 32 33 34 35 36 37 38 39 40 41 42 43 44 45 46 47 48 49 50
855
ASUS43 KBIS 221510
RWRND

NORTH DAKOTA REGIONAL WEATHER ROUNDUP
NATIONAL WEATHER SERVICE BISMARCK ND
1000 AM CDT SUN APR 22 2018

NOTE: "FAIR" INDICATES FEW OR NO CLOUDS BELOW 12,000 FEET WITH NO
SIGNIFICANT WEATHER AND/OR OBSTRUCTIONS TO VISIBILITY.


NDZ001>003-009>011-017-221600-
NORTHWEST NORTH DAKOTA

CITY           SKY/WX    TMP DP  RH WIND       PRES   REMARKS
WILLISTON      MOSUNNY   54  29  38 W6        30.13S
MINOT          MOSUNNY   54  37  52 SW7       30.10S
MINOT AFB      MOSUNNY   52  37  56 NW10      30.09S
$$

NDZ018>021-031>035-040>046-221600-
SOUTHWEST NORTH DAKOTA

CITY           SKY/WX    TMP DP  RH WIND       PRES   REMARKS
BISMARCK       SUNNY     51  37  58 SW12      30.17F
DICKINSON      PTSUNNY   52  35  52 NW6       30.11S
GARRISON         N/A     45  38  76 SW7       30.13S
HETTINGER ARPT SUNNY     46  38  73 VRB3      30.16S
$$

NDZ004>008-012>016-024-026-027-054-221600-
NORTHEAST NORTH DAKOTA

CITY           SKY/WX    TMP DP  RH WIND       PRES   REMARKS
GRAND FORKS    FAIR      46  40  79 S15       30.20F
GRND FRKS AFB  FAIR      48  39  70 S16       30.19F
DEVILS LAKE    FAIR      47  35  63 SW15      30.15F
$$

NDZ022-023-025-028>030-036>039-047>053-221600-
SOUTHEAST NORTH DAKOTA

CITY           SKY/WX    TMP DP  RH WIND       PRES   REMARKS
FARGO          FAIR      50  36  58 S15       30.26F
JAMESTOWN      SUNNY     48  38  68 S16       30.20F
$$





USA.gov is the U.S. government's official web portal to all federal, state and local government web resources and services.